Regional Weather Roundup
Issued by NWS Tiyan, Guam

Home | Current Version | Previous Version | Text Only | Print | Product List | Glossary On
Versions: 1 2 3 4 5 6 7 8 9 10 11 12 13 14 15 16 17 18 19 20 21 22 23 24 25 26 27
000
ASGM40 PGUM 240012
RWRGUM
WEATHER ROUNDUP FOR THE MARIANAS
NATIONAL WEATHER SERVICE TIYAN GU
1000 AM CHST SAT FEB 24 2018

GUZ001>004-240100-
MARIANA ISLANDS-

CITY           SKY/WX    TMP DP  RH WIND       PRES   REMARKS
GUAM AIRPORT   LGT RAIN  82  77  83 E15G29    29.98S HX  91
ANDERSEN AFB   PTSUNNY   81  73  78 E18       29.99S
ROTA AIRPORT   PTSUNNY   81  73  78 E20       29.99R
TINIAN AP      MOSUNNY   82  77  83 E20       29.97F HX  91
SAIPAN AP      MOSUNNY   84  75  74 E16       29.99S HX  92

$$





USA.gov is the U.S. government's official web portal to all federal, state and local government web resources and services.